Regional Weather Roundup
Issued by NWS

Home | Current Version | Previous Version | Text Only | Print | Product List | Glossary Off
Versions: 1 2 3 4 5 6 7 8 9 10 11 12 13 14 15 16 17 18 19 20 21 22 23 24 25 26 27 28 29 30 31 32 33 34 35 36 37 38 39 40 41 42 43 44 45 46 47 48 49 50

717
ASUS43 KMPX 180110
RWRMN
WEATHER ROUNDUP FOR MINNESOTA
NATIONAL WEATHER SERVICE TWIN CITIES/CHANHASSEN MN
700 PM CST FRI NOV 17 2017


NOTE: "FAIR" INDICATES FEW OR NO CLOUDS BELOW 12,000 FEET WITH NO
SIGNIFICANT WEATHER AND/OR OBSTRUCTIONS TO VISIBILITY. N/A MEANS
CURRENT SKY AND/OR WEATHER CONDITIONS ARE NOT AVAILABLE.

MNZ060>063-068>070-180200-
   Twin Cities Metro

CITY           SKY/WX    TMP DP  RH WIND       PRES   REMARKS
TWIN CITIES    CLOUDY    39  38  96 N7        29.65S
ST PAUL        CLOUDY    38  37  97 NW6       29.67R
CRYSTAL        CLOUDY    38  33  82 N5        29.65R
BLAINE         CLOUDY    37  37 100 N5        29.65R FOG
LAKEVILLE      FOG       36  36 100 N3        29.64S VSB 1
EDEN PRAIRIE   CLOUDY    39  36  89 N6        29.64R FOG
SOUTH ST PAUL  CLOUDY    38  38 100 CALM      29.65S
LAKE ELMO      CLOUDY    36  36 100 N3        29.66R FOG
$$
MNZ001>005-007-008-013>017-022>024-027-028-180200-
   Northwest Minnesota

CITY           SKY/WX    TMP DP  RH WIND       PRES   REMARKS
BEMIDJI        PTCLDY    26  19  75 NW10      29.69R WCI  15
HALLOCK        CLOUDY    16  12  86 NW3       29.75S
ROSEAU         CLEAR     19  14  79 W6        29.73R WCI  11
WARROAD        PTCLDY    19  16  86 W5        29.72R WCI  13
THIEF RVR FALL CLOUDY    18  15  88 NW8       29.74R WCI   8
CROOKSTON      PTCLDY    19  18  93 NW5       29.77R WCI  13
FOSSTON        MOCLDY    19  18  93 NW6       29.72R WCI  11
DETROIT LAKES  CLOUDY    28  23  80 NW10      29.70R WCI  19
MOORHEAD       CLOUDY    27  19  74 N12       29.74S WCI  16
PARK RAPIDS    CLOUDY    31  27  85 NW6       29.66S WCI  25
MAHNOMEN       FAIR      24  19  82 NW8       29.72R WCI  15
$$
MNZ006-009>011-018-025>026-180200-
   North Central Minnesota

CITY           SKY/WX    TMP DP  RH WIND       PRES   REMARKS
BAUDETTE       PTCLDY    22  16  78 W5        29.70R WCI  16
FLAG ISLAND    CLEAR     21  16  79 W7        29.70R WCI  13
INTL FALLS     CLOUDY    27  19  72 NW8       29.68R WCI  19
WASKISH        CLOUDY    25  19  80 NW6       29.70R WCI  18
BIG FORK       PTCLDY    30  27  86 CALM      29.66S
LONGVILLE      CLOUDY    34  30  86 NW5       29.66S WCI  30
GRAND RAPIDS   CLOUDY    30  29  96 CALM      29.68R FOG
CRANE LAKE     CLOUDY    32  30  93 CALM      29.68R
ORR            CLOUDY    32  28  86 CALM      29.63S
COOK           CLOUDY    34  30  86 CALM      29.66R FOG
WALKER         FAIR      30  26  84 NW6       29.67S WCI  24
$$
MNZ012-019>021-037-180200-
   Northeast Minnesota

CITY           SKY/WX    TMP DP  RH WIND       PRES   REMARKS
DULUTH         CLOUDY    31  31 100 NW5       29.64S FOG     WCI  26
ELY            CLOUDY    32  32 100 W3        29.65R
HIBBING        CLOUDY    32  31  96 CALM      29.65S FOG
EVELETH        MOCLDY    32  30  93 CALM      29.66S FOG
DULUTH HARBOR  CLOUDY    34  34 100 CALM      29.67F
TWO HARBORS    CLOUDY    36  30  80 CALM      29.64S HAZE
SILVER BAY     CLOUDY    34  34 100 CALM      29.64R
GRAND MARAIS     N/A     35  34  96 W3        29.65S
G MARAIS ARPRT CLOUDY    30  27  86 W3        29.61R FOG
$$
MNZ029>031-032-039>041-046>048-054>057-064-180200-
   West Central Minnesota

CITY           SKY/WX    TMP DP  RH WIND       PRES   REMARKS
FERGUS FALLS   CLOUDY    28  21  74 N8        29.72S WCI  20
WHEATON        CLOUDY    32  25  74 NW7       29.74R WCI  26
MORRIS         CLOUDY    34  28  80 NW14      29.67S WCI  24
ALEXANDRIA     CLOUDY    35  31  85 N7        29.66F WCI  29
ELBOW LAKE     CLOUDY    31  26  80 NW8       29.69R WCI  24
WADENA         CLOUDY    32  28  86 NW10      29.65F WCI  24
GLENWOOD       CLOUDY    34  32  93 CALM      29.65R FOG
APPLETON         N/A     36  30  80 N6        29.68R
BENSON         CLOUDY    36  32  87 N3        29.68S
ORTONVILLE     CLOUDY    34  27  75 MISG      29.70R
MADISON        CLOUDY    37  34  87 NW6       29.67S
WILLMAR        FAIR      36  34  93 CALM      29.67F
$$
MNZ033>034-036-042>043-049>051-058-059-180200-
   Central Minnesota

CITY           SKY/WX    TMP DP  RH WIND       PRES   REMARKS
ST CLOUD       CLOUDY    35  34  96 N3        29.66R FOG
SAUK CENTRE    MOCLDY    32  32  99 CALM      29.65F
PAYNESVILLE    CLOUDY    35  34  96 CALM      29.65F
AITKIN         CLOUDY    28  27  93 CALM      29.66R FOG
PINE RIVER     CLOUDY    28  28 100 CALM      29.70F FOG
BRAINERD       CLOUDY    32  30  92 E3        29.66S FOG
STAPLES        CLOUDY    30  30 100 N5        29.64F WCI  25
LONG PRAIRIE   MOCLDY    32  32 100 CALM      29.66F FOG
LITTLE FALLS   CLOUDY    32  30  93 CALM      29.66F FOG
LITCHFIELD     CLOUDY    37  36  93 N6        29.66S
BUFFALO        CLOUDY    37  34  90 CALM      29.67S FOG
MAPLE LAKE     CLOUDY    37  36  93 N6        29.67R FOG
HUTCHINSON     CLOUDY    39  36  87 NW7       29.67S
$$
MNZ037-044-045-052-053-180200-
   East Central Minnesota

CITY           SKY/WX    TMP DP  RH WIND       PRES   REMARKS
PRINCETON      CLOUDY    36  34  93 CALM      29.66F FOG
MORA           CLOUDY    32  32 100 CALM      29.69R FOG
CAMBRIDGE      FOG       37  37 100 N3        29.67R VSB 1
RUSH CITY      FOG       34  33  96 N5        29.67R VSB 3/4 WCI  30
MOOSE LAKE     FOG       32  32 100 CALM      29.65S VSB 3/4
HINCKLEY       CLOUDY    34  34 100 CALM      29.67R FOG
CLOQUET        CLOUDY    32  30  93 CALM      29.65S FOG
MCGREGOR         N/A     32  32 100 CALM      29.67R
$$
MNZ071>073-080-081-089-090-097-098-180200-
   Southwest Minnesota

CITY           SKY/WX    TMP DP  RH WIND       PRES   REMARKS
MONTEVIDEO     CLOUDY    34  30  86 CALM      29.67S
GRANITE FALLS  CLOUDY    37  34  87 N7        29.68S
CANBY          CLOUDY    36  32  86 NW3       29.69F
MARSHALL       PTCLDY    36  32  85 N9        29.67R
REDWOOD FALLS  CLOUDY    39  33  79 NE6       29.65S
OLIVIA         CLOUDY    36  32  87 N7        29.65F
PIPESTONE      PTCLDY    36  30  80 NE6       29.63R
WINDOM           N/A     39  27  60 N13       29.63R
WORTHINGTON    CLOUDY    38  33  82 N8        29.64R
JACKSON        LGT RAIN  41  36  81 N3        29.63F
SLAYTON        PTCLDY    37  33  84 N12       29.64F
$$
MNZ065>067-074>077-082>085-091>093-180200-
   South Central Minnesota

CITY           SKY/WX    TMP DP  RH WIND       PRES   REMARKS
MANKATO        CLOUDY    37  37 100 N9        29.64S FOG
NEW ULM        CLOUDY    39  36  87 CALM      29.64S
ST JAMES       PTCLDY    39  37  93 N9        29.63F
FAIRMONT       LGT RAIN  41  38  89 N8        29.63R
GLENCOE        CLOUDY    40  36  87 N6        29.64F
FARIBAULT      CLOUDY    37  37 100 CALM      29.63S FOG
OWATONNA       CLOUDY    37  37 100 N5        29.61F FOG
WASECA         FOG       36  36 100 N5        29.64R VSB 1/2
ALBERT LEA     FOG       37  37 100 CALM      29.60S VSB 3/4
$$
MNZ078>079-086>088-094>096-180200-
   Southeast Minnesota

CITY           SKY/WX    TMP DP  RH WIND       PRES   REMARKS
ROCHESTER      CLOUDY    37  37 100 NE3       29.61R FOG
RED WING       CLOUDY    37  36  93 CALM      29.62F FOG
STANTON        CLOUDY    38  37  95 CALM      29.62R FOG
DODGE CENTER   FOG       36  36 100 N3        29.60F VSB 1/2
WINONA         CLOUDY    36  36 100 CALM      29.63F FOG
AUSTIN         FOG       37  36  93 CALM      29.59F VSB 1
PRESTON        FOG       36  35  96 CALM      29.61R VSB 1/2
$$
ABBREVIATIONS USED IN REMARKS
   TC - TEMPERATURES IN CELSIUS
  WCI - WIND CHILL INDEX
   HX - HEAT INDEX
  VSB - VISIBILITY
$$




USA.gov is the U.S. government's official web portal to all federal, state and local government web resources and services.